Regional Weather Roundup
Issued by NWS

Home | Current Version | Previous Version | Graphics & Text | Print | Product List | Glossary On
Versions: 1 2 3 4 5 6 7 8 9 10 11 12 13 14 15 16 17 18 19 20 21 22 23 24 25 26 27 28 29 30 31 32 33 34 35 36 37 38 39 40 41 42 43 44 45 46 47 48 49 50
000
ASUS45 KPSR 180800
RWRAZ

PRELIMINARY ARIZONA REGIONAL HOURLY WEATHER ROUNDUP
NATIONAL WEATHER SERVICE PHOENIX AZ
100 AM MST THU SEP 18 2014

NOTE: FAIR INDICATES FEW OR NO CLOUDS BELOW 12,000 FEET WITH NO
SIGNIFICANT WEATHER AND/OR OBSTRUCTIONS TO VISIBILITY.

AZZ001>003-036-180900-
NORTHWEST ARIZONA

CITY           SKY/WX    TMP DP  RH WIND       PRES   REMARKS
KINGMAN        CLEAR     67  61  81 SE6       29.92F
$$

AZZ004>008-015-016-018-180900-
NORTH CENTRAL ARIZONA

CITY           SKY/WX    TMP DP  RH WIND       PRES   REMARKS
GRAND CANYON   CLEAR     49  46  90 CALM      30.14F
PRESCOTT       CLEAR     59  54  83 CALM      30.03S
FLAGSTAFF      CLEAR     50  47  89 CALM      30.16S
PAGE           CLEAR     72  52  49 CALM      29.97S
$$

AZZ009>014-017-180900-
NORTHEAST ARIZONA

CITY           SKY/WX    TMP DP  RH WIND       PRES   REMARKS
WINSLOW        NOT AVBL
SAINT JOHNS    CLEAR     59  54  83 SE5       30.06F
WINDOW ROCK    CLEAR     50  43  77 CALM      30.17R
$$

AZZ023-180900-
GREATER PHOENIX AREA

CITY           SKY/WX    TMP DP  RH WIND       PRES   REMARKS
PHOENIX        PTCLDY    82  64  54 E10       29.74S
DEER VALLEY    CLEAR     80  63  55 NE3       29.77S
SCOTTSDALE     CLEAR     80  65  59 CALM      29.79S
$$

AZZ027-028-180900-
SOUTHWEST MARICOPA COUNTY AND PINAL COUNTY

CITY           SKY/WX    TMP DP  RH WIND       PRES   REMARKS
CASA GRANDE    CLEAR     79  63  57 NE9       29.77S
$$

AZZ503-504-507>509-180900-
SOUTHEAST ARIZONA

CITY           SKY/WX    TMP DP  RH WIND       PRES   REMARKS
TUCSON         CLOUDY    74  66  76 SE8       29.84S
NOGALES        LGT RAIN  66  65  96 S5        29.89S FOG
SIERRA VISTA   CLOUDY    64  64 100 E3        29.94S FOG
DOUGLAS        HVY RAIN  65  63  93 SE12      29.93F FOG
SAFFORD        LGT RAIN  66  64  93 SE12      29.92F FOG
$$

AZZ020-021-025-026-031-180900-
SOUTHWEST ARIZONA

CITY           SKY/WX    TMP DP  RH WIND       PRES   REMARKS
YUMA           PTCLDY    91  65  41 E5        29.70S
$$

CAZ031-033-041-043-047-048-061-180900-
SOUTHERN CALIFORNIA

CITY           SKY/WX    TMP DP  RH WIND       PRES   REMARKS
DOWNTOWN L.A.  CLEAR     72  59  63 SE3       29.79R
L.A. AIRPORT   CLEAR     70  60  70 CALM      29.79S
SAN DIEGO      CLEAR     74  67  78 W3        29.82S
BURBANK        CLEAR     74  56  53 SE7       29.80R
ONTARIO        CLEAR     74  60  61 W7        29.82R
RIVERSIDE      CLEAR     75  59  57 W5        29.82R
PALM SPRINGS   CLEAR     91  56  30 CALM      29.72S
EL CENTRO NAS  CLEAR     90  63  40 S6        29.66S
IMPERIAL       CLEAR     91  64  40 S7        29.66S
BLYTHE         CLEAR     87  68  52 SE7       29.70S
$$

NVZ020-UTZ003-180900-
SOUTHERN NEVADA-UTAH

CITY           SKY/WX    TMP DP  RH WIND       PRES   REMARKS
LAS VEGAS      NOT AVBL
SALT LAKE CITY PTCLDY    74  45  35 SE10      29.89S
$$

NMZ009-TXZ055-180900-
NEW MEXICO-WEST TEXAS

CITY           SKY/WX    TMP DP  RH WIND       PRES   REMARKS
ALBUQUERQUE    MOCLDY    63  57  81 CALM      30.09F
EL PASO        CLOUDY    67  64  90 N15       29.99F
$$


........................KEY........................
SKY/WX - SKY CONDITION/WEATHER
TMP    - TEMPERATURE IN FAHRENHEIT
DP     - DEW POINT IN FAHRENHEIT
RH     - RELATIVE HUMIDITY IN PERCENT
WIND   - DIRECTION AND SPEED IN MILES PER HOUR (MPH)
VRB    - VARIABLE WIND DIRECTION
PRES   - MEAN SEA LEVEL PRESSURE IN INCHES OF MERCURY
         F - FALLING PRESSURE   R - RISING PRESSURE
         S - STEADY PRESSURE
VSB    - VISIBILITY IN MILES
HX     - HEAT INDEX IN FAHRENHEIT
WCI    - WIND CHILL INDEX IN FAHRENHEIT
TC     - TEMPERATURE IN CELSIUS WHICH IS ALSO KNOWN AS
         TEMPERATURE IN CENTIGRADE
AFB    - AIR FORCE BASE
         LUKE AFB IS LUKE AIR FORCE BASE
         DAVIS-MONTHAN IS DAVIS-MONTHAN AIR FORCE BASE
NAS    - NAVAL AIR STATION
         EL CENTRO NAS IS EL CENTRO NAVAL AIR STATION
N/A    - NOT AVAILABLE



USA.gov is the U.S. government's official web portal to all federal, state and local government web resources and services.